GW1995 Weather Reports


time (UTC)temp
F
wind
direction
speed
knots
gust
knots
rain 1hr
in
rain 24hr
in
rain mn
in
humidity
%
barometer
mb
20260509211821 61 314 3.5 13.0 0.00 0.00 0.00 27 1009.1
20260509211317 60 274 1.7 7.8 0.00 0.00 0.00 28 1009.1
20260509210814 61 316 5.2 6.1 0.00 0.00 0.00 27 1009.0
20260509210312 61 231 4.3 8.7 0.00 0.00 0.00 28 1009.0
20260509205811 60 159 2.6 6.1 0.00 0.00 0.00 27 1008.8
20260509205307 61 287 2.6 7.8 0.00 0.00 0.00 27 1008.9
20260509204803 61 260 2.6 7.0 0.00 0.00 0.00 27 1008.8
20260509204259 61 295 2.6 2.6 0.00 0.00 0.00 29 1008.8
20260509203755 60 251 2.6 6.1 0.00 0.00 0.00 29 1008.8
20260509203253 60 358 6.1 8.7 0.00 0.00 0.00 29 1008.6
20260509202748 61 324 2.6 7.8 0.00 0.00 0.00 29 1008.7
20260509202244 61 262 5.2 6.1 0.00 0.00 0.00 29 1008.8
20260509201738 60 307 1.7 7.0 0.00 0.00 0.00 30 1008.8
20260509201235 61 4 2.6 4.3 0.00 0.00 0.00 30 1008.5
20260509200731 60 295 4.3 7.8 0.00 0.00 0.00 29 1008.7
20260509200227 60 297 4.3 7.8 0.00 0.00 0.00 29 1008.7
20260509195723 60 279 3.5 6.1 0.00 0.00 0.00 30 1008.6
20260509195218 61 294 4.3 7.0 0.00 0.00 0.00 28 1008.7
20260509194713 59 317 3.5 7.8 0.00 0.00 0.00 30 1008.4
20260509194210 59 304 3.5 5.2 0.00 0.00 0.00 31 1008.5
20260509193706 59 341 3.5 7.0 0.00 0.00 0.00 31 1008.7
20260509193201 60 261 2.6 8.7 0.00 0.00 0.00 31 1008.5
20260509192657 60 233 2.6 5.2 0.00 0.00 0.00 31 1008.4
20260509192153 59 285 3.5 6.1 0.00 0.00 0.00 31 1008.3
20260509191648 59 349 3.5 6.1 0.00 0.00 0.00 30 1008.2
20260509191145 60 241 5.2 7.8 0.00 0.00 0.00 32 1008.3
20260509190641 60 265 3.5 7.0 0.00 0.00 0.00 32 1008.2
20260509190138 60 284 2.6 8.7 0.00 0.00 0.00 33 1008.1
20260509185636 59 331 2.6 7.0 0.00 0.00 0.00 36 1008.0
20260509185132 59 277 2.6 8.7 0.00 0.00 0.00 35 1008.1
20260509184630 59 1 5.2 6.1 0.00 0.00 0.00 36 1008.0
20260509184126 59 303 5.2 8.7 0.00 0.00 0.00 35 1008.0
20260509183623 59 27 7.0 8.7 0.00 0.00 0.00 34 1008.1
20260509183118 58 257 0.9 8.7 0.00 0.00 0.00 35 1008.0
20260509182614 60 355 7.0 12.2 0.00 0.00 0.00 35 1007.7
20260509182111 59 261 2.6 5.2 0.00 0.00 0.00 36 1007.6
20260509181609 59 285 2.6 8.7 0.00 0.00 0.00 37 1007.6
20260509181106 58 331 7.8 9.6 0.00 0.00 0.00 38 1007.6
20260509180603 59 305 7.0 8.7 0.00 0.00 0.00 37 1007.5
20260509180100 58 294 2.6 8.7 0.00 0.00 0.00 38 1007.4
20260509175555 58 3 3.5 7.8 0.00 0.00 0.00 37 1007.5
20260509175052 60 270 6.1 7.8 0.00 0.00 0.00 36 1007.5
20260509174548 59 303 6.1 7.0 0.00 0.00 0.00 37 1007.4
20260509174043 59 330 3.5 8.7 0.00 0.00 0.00 38 1007.3
20260509173538 58 325 3.5 9.6 0.00 0.00 0.00 38 1007.4
20260509173035 58 1 7.0 13.0 0.00 0.00 0.00 39 1007.3
20260509172532 58 27 4.3 8.7 0.00 0.00 0.00 38 1007.2
20260509172028 58 320 3.5 9.6 0.00 0.00 0.00 38 1007.5
20260509171524 58 283 4.3 8.7 0.00 0.00 0.00 39 1007.1
20260509171021 58 43 4.3 7.8 0.00 0.00 0.00 38 1007.2
20260509170516 58 276 6.1 7.0 0.00 0.00 0.00 38 1007.2
20260509170012 58 302 6.1 7.8 0.00 0.00 0.00 38 1007.0
20260509165511 58 359 4.3 7.8 0.00 0.00 0.00 37 1007.1
20260509165007 58 14 6.1 9.6 0.00 0.00 0.00 37 1007.2
20260509164503 58 309 6.1 8.7 0.00 0.00 0.00 37 1007.2
20260509163958 58 315 7.0 7.8 0.00 0.00 0.00 36 1006.9
20260509163456 58 234 2.6 5.2 0.00 0.00 0.00 40 1006.9
20260509162955 57 28 2.6 7.0 0.00 0.00 0.00 41 1006.8
20260509162454 57 296 3.5 7.8 0.00 0.00 0.00 40 1006.6
20260509161950 57 339 3.5 7.8 0.00 0.00 0.00 41 1006.5
20260509161446 57 334 4.3 11.3 0.00 0.00 0.00 41 1006.6
20260509160942 57 348 3.5 9.6 0.00 0.00 0.00 41 1006.6
20260509160438 57 354 4.3 7.8 0.00 0.00 0.00 40 1006.6
20260509155933 57 288 6.1 7.0 0.00 0.00 0.00 41 1006.6
20260509155430 57 325 7.0 8.7 0.00 0.00 0.00 43 1006.5
20260509154927 56 320 4.3 9.6 0.00 0.00 0.00 46 1006.6
20260509154423 56 324 3.5 7.0 0.00 0.00 0.00 46 1006.6
20260509153920 56 272 3.5 6.1 0.00 0.00 0.00 46 1006.4
20260509153417 55 316 6.1 11.3 0.00 0.00 0.00 47 1006.3
20260509152914 55 306 2.6 6.1 0.00 0.00 0.00 48 1006.4
20260509152409 55 317 6.1 7.8 0.00 0.00 0.00 48 1006.5
20260509151907 55 262 2.6 7.0 0.00 0.00 0.00 48 1006.3
20260509151403 56 237 2.6 5.2 0.00 0.00 0.00 52 1006.2
20260509150901 55 3 4.3 8.7 0.00 0.00 0.00 54 1006.3
20260509150358 54 0 4.3 7.8 0.00 0.00 0.00 55 1005.9
20260509145856 54 165 3.5 7.0 0.00 0.00 0.00 56 1006.0
20260509145350 53 11 3.5 7.8 0.00 0.00 0.00 57 1006.0
20260509144847 54 273 3.5 7.8 0.00 0.00 0.00 58 1005.8
20260509144344 54 256 3.5 8.7 0.00 0.00 0.00 57 1005.8
20260509143841 54 304 4.3 7.8 0.00 0.00 0.00 58 1005.6
20260509143338 53 301 1.7 4.3 0.00 0.00 0.00 63 1005.5
20260509142834 53 116 2.6 5.2 0.00 0.00 0.00 62 1005.5
20260509142331 53 269 2.6 5.2 0.00 0.00 0.00 65 1005.6
20260509141827 53 129 1.7 6.1 0.00 0.00 0.00 66 1005.6
20260509141328 52 311 1.7 6.1 0.00 0.00 0.00 66 1005.3
20260509140820 52 318 1.7 5.2 0.00 0.00 0.00 67 1005.1
20260509140317 53 316 4.3 6.1 0.00 0.00 0.00 67 1005.2
20260509135816 54 6 5.2 7.0 0.00 0.00 0.00 65 1005.2
20260509135312 53 55 1.7 6.1 0.00 0.00 0.00 66 1005.0
20260509134810 53 319 5.2 7.8 0.00 0.00 0.00 67 1005.2
20260509134307 52 333 4.3 7.8 0.00 0.00 0.00 68 1004.9
20260509133804 52 346 3.5 6.1 0.00 0.00 0.00 68 1005.0
20260509133300 53 299 6.1 9.6 0.00 0.00 0.00 69 1004.9
20260509132759 53 321 4.3 7.8 0.00 0.00 0.00 70 1004.7
20260509132258 52 306 3.5 5.2 0.00 0.00 0.00 70 1004.6
20260509131754 52 345 4.3 6.1 0.00 0.00 0.00 70 1004.5
20260509131250 52 323 2.6 6.1 0.00 0.00 0.00 72 1004.4
20260509130747 53 302 6.1 7.8 0.00 0.00 0.00 73 1004.4
20260509130242 52 284 0.9 7.0 0.00 0.00 0.00 74 1004.2
20260509125739 52 275 0.9 6.1 0.00 0.00 0.00 73 1004.3
20260509125236 52 315 7.0 7.8 0.00 0.00 0.00 73 1004.1
20260509124732 52 316 2.6 7.0 0.00 0.00 0.00 73 1004.1
20260509124229 52 285 4.3 9.6 0.00 0.00 0.00 73 1004.1
20260509123727 52 304 2.6 6.1 0.00 0.00 0.00 75 1004.0
20260509123224 52 316 1.7 5.2 0.00 0.00 0.00 74 1003.8
20260509122720 53 337 1.7 2.6 0.00 0.00 0.00 73 1003.7
20260509122217 53 26 2.6 4.3 0.00 0.00 0.00 73 1003.6
20260509121714 53 278 3.5 6.1 0.00 0.00 0.00 72 1003.5
20260509121211 52 326 2.6 5.2 0.00 0.00 0.00 71 1003.4
20260509120709 52 272 0.9 4.3 0.00 0.00 0.00 71 1003.5
20260509120207 51 256 0.0 0.9 0.00 0.00 0.00 71 1003.3
20260509115704 51 243 0.9 0.9 0.00 0.00 0.00 71 1003.1
20260509115201 50 229 0.9 0.9 0.00 0.00 0.00 74 1003.1
20260509114700 51 228 0.0 0.0 0.00 0.00 0.00 75 1002.9
20260509114158 51 232 0.9 0.9 0.00 0.00 0.00 75 1003.0
20260509113656 50 232 0.9 0.9 0.00 0.00 0.00 73 1002.7
20260509113153 50 233 0.0 0.9 0.00 0.00 0.00 74 1002.9
20260509112650 51 232 0.9 0.9 0.00 0.00 0.00 71 1002.6
20260509112147 50 232 0.0 0.9 0.00 0.00 0.00 69 1002.6
20260509111644 50 232 0.0 0.0 0.00 0.00 0.00 68 1002.4
20260509111141 50 233 0.0 0.0 0.00 0.00 0.00 69 1002.4
20260509110638 51 232 0.0 0.9 0.00 0.00 0.00 67 1002.5
20260509110135 51 232 0.9 0.9 0.00 0.00 0.00 63 1002.6
20260509105633 52 232 0.0 0.0 0.00 0.00 0.00 60 1002.4
20260509105130 52 232 0.9 0.9 0.00 0.00 0.00 58 1002.4
20260509104627 53 298 0.0 0.9 0.00 0.00 0.00 54 1002.4
20260509104124 53 239 0.0 0.0 0.00 0.00 0.00 53 1002.4
20260509103622 53 219 0.9 0.9 0.00 0.00 0.00 51 1002.0
20260509103120 53 226 0.9 0.9 0.00 0.00 0.00 49 1002.0
20260509102617 53 241 0.9 0.9 0.00 0.00 0.00 49 1002.2
20260509102114 53 246 0.9 0.9 0.00 0.00 0.00 49 1002.4
20260509101610 53 245 0.0 0.9 0.00 0.00 0.00 49 1002.2
20260509101107 53 285 0.9 1.7 0.00 0.00 0.00 48 1002.4
20260509100604 54 297 0.0 0.9 0.00 0.00 0.00 48 1002.3
20260509095557 53 278 0.0 1.7 0.00 0.00 0.00 48 1002.3
20260509095055 53 300 1.7 4.3 0.00 0.00 0.00 47 1002.7
20260509094551 53 295 0.9 2.6 0.00 0.00 0.00 48 1002.5
20260509094049 53 272 0.9 0.9 0.00 0.00 0.00 49 1002.3
20260509093547 53 262 0.9 1.7 0.00 0.00 0.00 49 1002.3
20260509093044 53 291 0.9 0.9 0.00 0.00 0.00 49 1002.0
20260509092542 52 279 0.0 1.7 0.00 0.00 0.00 51 1002.0
20260509092040 52 259 0.0 0.9 0.00 0.00 0.00 52 1002.3
20260509091537 52 257 0.0 0.9 0.00 0.00 0.00 51 1002.6
20260509091034 52 255 0.0 0.0 0.00 0.00 0.00 51 1002.2
20260509090531 52 245 0.9 0.9 0.00 0.00 0.00 50 1002.2
20260509090029 52 270 0.0 0.9 0.00 0.00 0.00 49 1002.1
20260509085526 52 299 2.6 2.6 0.00 0.00 0.00 48 1002.2
20260509085022 51 318 1.7 6.1 0.00 0.00 0.00 49 1001.9
20260509084519 51 216 0.0 0.9 0.00 0.00 0.00 48 1001.4
20260509084016 51 216 0.9 0.9 0.00 0.00 0.00 48 1001.2
20260509083513 51 216 0.0 0.9 0.00 0.00 0.00 47 1001.3
20260509083010 51 216 0.0 0.9 0.00 0.00 0.00 48 1001.3
20260509082508 51 216 0.9 0.9 0.00 0.00 0.00 48 1001.2
20260509082004 51 216 0.0 0.9 0.00 0.00 0.00 49 1001.3
20260509081502 51 216 0.0 0.9 0.00 0.00 0.00 49 1001.3
20260509080958 51 214 0.9 0.9 0.00 0.00 0.00 49 1001.2
20260509080456 51 213 0.0 0.9 0.00 0.00 0.00 49 1001.0
20260509075954 51 213 0.9 0.9 0.00 0.00 0.00 48 1001.0
20260509075451 50 212 0.9 1.7 0.00 0.00 0.00 48 1000.8
20260509074949 51 213 0.9 0.9 0.00 0.00 0.00 48 1001.1
20260509074446 51 213 0.9 0.9 0.00 0.00 0.00 48 1001.0
20260509073942 51 213 0.9 0.9 0.00 0.00 0.00 47 1001.1
20260509073439 50 217 0.0 0.9 0.00 0.00 0.00 47 1001.2
20260509072935 50 217 0.9 0.9 0.00 0.00 0.00 49 1001.3
20260509072432 50 217 0.9 0.9 0.00 0.00 0.00 49 1001.4
20260509071929 50 216 0.9 0.9 0.00 0.00 0.00 49 1001.5
20260509071426 50 216 0.0 0.9 0.00 0.00 0.00 49 1001.4
20260509070923 50 215 0.9 0.9 0.00 0.00 0.00 46 1001.4
20260509070420 50 215 0.9 0.9 0.00 0.00 0.00 48 1001.4
20260509065915 50 219 0.9 0.9 0.00 0.00 0.00 48 1001.5
20260509065412 51 218 0.9 0.9 0.00 0.00 0.00 46 1001.4
20260509064908 51 218 0.0 0.9 0.00 0.00 0.00 45 1001.6
20260509064406 51 218 0.0 0.9 0.00 0.00 0.00 45 1001.6
20260509063903 51 226 0.0 0.9 0.00 0.00 0.00 44 1001.7
20260509063359 52 227 0.0 0.0 0.00 0.00 0.00 45 1001.7
20260509062856 52 225 0.9 0.9 0.00 0.00 0.00 45 1001.7
20260509062353 52 213 0.9 1.7 0.00 0.00 0.00 45 1001.7
20260509061851 52 250 0.9 0.9 0.00 0.00 0.00 43 1001.9
20260509061349 53 250 0.9 0.9 0.00 0.00 0.00 42 1001.9
20260509060845 53 250 0.9 0.9 0.00 0.00 0.00 40 1002.0
20260509060342 54 251 0.0 0.0 0.00 0.00 0.00 39 1002.1
20260509055837 54 252 0.0 0.9 0.00 0.00 0.00 39 1002.2
20260509055333 54 251 0.0 0.9 0.00 0.00 0.00 39 1002.0
20260509054831 55 251 0.0 0.0 0.00 0.00 0.00 38 1002.0
20260509054327 56 251 0.0 0.9 0.00 0.00 0.00 36 1002.1
20260509053826 56 252 0.0 0.0 0.00 0.00 0.00 35 1002.3
20260509053322 57 252 0.0 0.0 0.00 0.00 0.00 34 1002.2
20260509052821 57 265 0.0 0.0 0.00 0.00 0.00 33 1002.4
20260509052318 58 266 0.0 0.9 0.00 0.00 0.00 32 1002.3
20260509051815 58 265 0.9 0.9 0.00 0.00 0.00 32 1002.2
20260509051314 59 268 0.0 0.9 0.00 0.00 0.00 32 1002.3
20260509050810 59 309 0.9 1.7 0.00 0.00 0.00 31 1002.4
20260509050306 59 287 0.9 2.6 0.00 0.00 0.00 31 1002.4
20260509045804 59 313 1.7 5.2 0.00 0.00 0.00 31 1002.4
20260509045300 59 278 0.9 1.7 0.00 0.00 0.00 31 1002.3
20260509044757 60 197 0.9 2.6 0.00 0.00 0.00 30 1002.5
20260509044255 60 273 0.9 2.6 0.00 0.00 0.00 31 1002.3
20260509043751 60 273 2.6 5.2 0.00 0.00 0.00 30 1002.5
20260509043247 60 254 0.9 2.6 0.00 0.00 0.00 31 1002.6
20260509042743 60 316 2.6 2.6 0.00 0.00 0.00 31 1002.4
20260509042240 60 313 3.5 5.2 0.00 0.00 0.00 30 1002.4
20260509041737 61 197 0.9 1.7 0.00 0.00 0.00 30 1002.4
20260509041234 61 298 2.6 4.3 0.00 0.00 0.00 30 1002.4
20260509040732 61 298 2.6 5.2 0.00 0.00 0.00 30 1002.4
20260509040229 61 319 2.6 6.1 0.00 0.00 0.00 30 1002.4
20260509035725 62 304 2.6 4.3 0.00 0.00 0.00 30 1002.2
20260509035223 62 272 1.7 6.1 0.00 0.00 0.00 30 1002.3
20260509034720 62 246 2.6 4.3 0.00 0.00 0.00 32 1002.3
20260509034217 62 262 1.7 7.0 0.00 0.00 0.00 31 1002.2
20260509033714 62 323 1.7 7.0 0.00 0.00 0.00 31 1002.2
20260509033211 63 351 5.2 8.7 0.00 0.00 0.00 32 1002.3
20260509032708 63 298 2.6 7.0 0.00 0.00 0.00 32 1002.1
20260509032205 63 314 2.6 5.2 0.00 0.00 0.00 31 1002.0
20260509031703 63 338 2.6 5.2 0.00 0.00 0.00 31 1002.0
20260509031200 63 288 2.6 6.1 0.00 0.00 0.00 31 1002.0
20260509030658 64 288 1.7 4.3 0.00 0.00 0.00 31 1001.6
20260509030155 64 269 1.7 6.1 0.00 0.00 0.00 31 1001.7
20260509025651 64 258 0.9 2.6 0.00 0.00 0.00 30 1001.8
20260509025147 64 272 1.7 4.3 0.00 0.00 0.00 30 1001.7
20260509024642 64 284 1.7 2.6 0.00 0.00 0.00 30 1001.6
20260509024138 64 263 1.7 7.8 0.00 0.00 0.00 29 1001.6
20260509023637 64 237 2.6 4.3 0.00 0.00 0.00 29 1001.5
20260509023133 64 260 1.7 2.6 0.00 0.00 0.00 29 1001.4
20260509022629 65 267 1.7 2.6 0.00 0.00 0.00 28 1001.3
20260509022128 65 241 0.9 4.3 0.00 0.00 0.00 28 1001.2
20260509021624 65 256 0.9 1.7 0.00 0.00 0.00 29 1001.1
20260509021121 65 246 1.7 4.3 0.00 0.00 0.00 28 1001.1
20260509020620 65 255 0.9 1.7 0.00 0.00 0.00 28 1001.0
20260509020116 66 245 0.9 4.3 0.00 0.00 0.00 27 1001.1
20260509015615 66 278 1.7 2.6 0.00 0.00 0.00 27 1000.8
20260509015112 66 267 0.9 5.2 0.00 0.00 0.00 27 1000.8
20260509014608 66 259 2.6 2.6 0.00 0.00 0.00 27 1000.7
20260509014105 66 292 1.7 1.7 0.00 0.00 0.00 28 1000.8
20260509013602 66 283 0.9 1.7 0.00 0.00 0.00 27 1000.7
20260509013057 67 269 1.7 2.6 0.00 0.00 0.00 26 1000.8
20260509012555 67 261 0.9 2.6 0.00 0.00 0.00 26 1000.6
20260509012051 67 235 1.7 2.6 0.00 0.00 0.00 26 1000.5
20260509011549 68 284 2.6 4.3 0.00 0.00 0.00 26 1000.5
20260509011046 68 289 2.6 4.3 0.00 0.00 0.00 26 1000.6
20260509010544 68 286 2.6 6.1 0.00 0.00 0.00 26 1000.8
20260509010040 68 254 2.6 4.3 0.00 0.00 0.00 26 1000.5
20260509005538 69 276 2.6 6.1 0.00 0.00 0.00 25 1000.3
20260509005038 69 275 2.6 6.1 0.00 0.00 0.00 26 1000.5
20260509004535 69 243 0.0 2.6 0.00 0.00 0.00 26 1000.5
20260509004032 69 281 1.7 5.2 0.00 0.00 0.00 26 1000.2
20260509003531 70 266 2.6 4.3 0.00 0.00 0.00 25 1000.5
20260509003027 70 262 1.7 1.7 0.00 0.00 0.00 25 1000.4
20260509002525 70 258 0.9 4.3 0.00 0.00 0.00 26 1000.6
20260509002022 70 309 2.6 4.3 0.00 0.00 0.00 26 1000.5
20260509001519 71 259 3.5 11.3 0.00 0.00 0.00 25 1000.4
20260509001015 71 257 3.5 4.3 0.00 0.00 0.00 25 1000.4
20260509000514 71 281 2.6 5.2 0.00 0.00 0.00 26 1000.5
20260509000009 70 282 0.9 2.6 0.00 0.00 0.00 26 1000.5
20260508235508 70 292 1.7 4.3 0.00 0.00 0.00 26 1000.4
20260508235003 70 245 1.7 2.6 0.00 0.00 0.00 25 1000.4
20260508234500 71 287 2.6 4.3 0.00 0.00 0.00 25 1000.5
20260508233958 71 258 0.9 2.6 0.00 0.00 0.00 25 1000.5
20260508233457 71 289 0.9 2.6 0.00 0.00 0.00 25 1000.5
20260508232954 72 262 0.9 1.7 0.00 0.00 0.00 24 1000.6
20260508232451 71 276 1.7 2.6 0.00 0.00 0.00 24 1000.7
20260508231948 71 285 1.7 5.2 0.00 0.00 0.00 25 1000.7
20260508231445 70 292 2.6 4.3 0.00 0.00 0.00 25 1000.8
20260508230942 70 280 0.9 1.7 0.00 0.00 0.00 26 1000.9
20260508230439 71 220 3.5 7.0 0.00 0.00 0.00 24 1000.8
20260508225936 71 281 2.6 2.6 0.00 0.00 0.00 24 1000.9
20260508225433 70 278 1.7 2.6 0.00 0.00 0.00 24 1001.0
20260508224930 70 272 2.6 4.3 0.00 0.00 0.00 24 1000.9
20260508224427 71 283 1.7 4.3 0.00 0.00 0.00 24 1000.9
20260508223925 71 244 0.9 2.6 0.00 0.00 0.00 24 1000.8
20260508223423 72 296 2.6 4.3 0.00 0.00 0.00 23 1000.8
20260508222919 71 229 1.7 1.7 0.00 0.00 0.00 25 1001.0
20260508222417 70 316 3.5 5.2 0.00 0.00 0.00 24 1001.2
20260508221913 71 310 2.6 6.1 0.00 0.00 0.00 24 1001.1
20260508221409 71 299 1.7 2.6 0.00 0.00 0.00 24 1001.2
20260508220905 70 267 1.7 1.7 0.00 0.00 0.00 24 1001.1
20260508220402 70 281 3.5 5.2 0.00 0.00 0.00 24 1001.3
20260508215858 71 214 1.7 1.7 0.00 0.00 0.00 24 1001.3
20260508215355 70 278 1.7 4.3 0.00 0.00 0.00 24 1001.4
20260508214852 71 278 1.7 4.3 0.00 0.00 0.00 23 1001.3
20260508214350 70 288 2.6 5.2 0.00 0.00 0.00 24 1001.6
20260508213845 71 252 2.6 7.0 0.00 0.00 0.00 23 1001.7
20260508213343 70 258 3.5 6.1 0.00 0.00 0.00 23 1001.8
20260508212838 69 229 2.6 2.6 0.00 0.00 0.00 24 1001.8
20260508212335 70 264 2.6 7.8 0.00 0.00 0.00 23 1001.7